Hourly Data Report for October 13, 2016

All times are specified in Local Standard Time (LST). Add 1 hour to adjust for Daylight Saving Time where and when it is observed.

CHARLOTTETOWN A
PRINCE EDWARD ISLAND

46°17'21.000" N
63°07'09.000" W
48.50 m
8300301
71706
YYG

Download Data

Hourly Data (October 2016)
Hourly Data Report for October 13, 2016
Temp Definition
°C
Dew Point Temp Definition
°C
Rel Hum Definition
%
Wind Dir Definition
10's deg

Wind Spd Definition
km/h
Visibility Definition
km
Stn Press Definition
kPa
Hmdx Definition


Wind Chill Definition


Weather Definition


TIME
00:00 Legend Double Dagger 10.8 8.7 87 19 13 24.1 102.03     LegendNANA
01:00 Legend Double Dagger 9.9 8.2 89 20 7 24.1 102.02     LegendNANA
02:00 Legend Double Dagger 9.8 8.4 91 20 14 24.1 101.93     Mainly Clear
03:00 Legend Double Dagger 9.5 8.1 91 19 16 24.1 101.85     LegendNANA
04:00 Legend Double Dagger 9.4 8.2 92 19 17 24.1 101.83     LegendNANA
05:00 Legend Double Dagger 8.8 7.7 93 19 17 24.1 101.82     Mostly Cloudy
06:00 Legend Double Dagger 9.9 8.5 91 18 14 24.1 101.78     LegendNANA
07:00 Legend Double Dagger 10.2 9.0 92 19 19 24.1 101.75     LegendNANA
08:00 Legend Double Dagger 11.8 9.4 85 18 20 24.1 101.74     Mainly Clear
09:00 Legend Double Dagger 12.9 9.4 79 19 21 24.1 101.70     LegendNANA
10:00 Legend Double Dagger 13.8 9.9 77 19 20 24.1 101.62     LegendNANA
11:00 Legend Double Dagger 14.2 10.7 79 17 23 24.1 101.55     Mostly Cloudy
12:00 Legend Double Dagger 15.5 11.9 79 19 29 24.1 101.45     LegendNANA
13:00 Legend Double Dagger 17.1 12.1 72 20 29 24.1 101.34     LegendNANA
14:00 Legend Double Dagger 17.7 12.4 71 19 27 24.1 101.26     Mainly Clear
15:00 Legend Double Dagger 17.8 11.9 68 18 24 24.1 101.14     LegendNANA
16:00 Legend Double Dagger 17.2 12.0 71 17 21 24.1 101.10     LegendNANA
17:00 Legend Double Dagger 16.5 12.1 75 17 21 24.1 101.08     Mostly Cloudy
18:00 Legend Double Dagger 15.8 12.4 80 17 24 24.1 101.06     LegendNANA
19:00 Legend Double Dagger 15.4 12.9 85 17 25 24.1 101.04     LegendNANA
20:00 Legend Double Dagger 15.1 13.2 88 18 25 24.1 101.00     Mainly Clear
21:00 Legend Double Dagger 15.0 13.6 91 19 26 24.1 101.01     LegendNANA
22:00 Legend Double Dagger 15.1 13.8 92 21 14 24.1 101.00     LegendNANA
23:00 Legend Double Dagger 14.5 13.6 94 19 8 24.1 100.94     Cloudy

Notes on Data Quality.

Legend

  • E = Estimated
  • M = Missing
  • NA = Not Available
  • ‡ = Partner data that is not subject to review by the National Climate Archives
Date modified: